| time (UTC) | temp F | wind direction | speed MPH | gust MPH | rain 1hr in | rain 24hr in | rain mn in | humidity % | barometer mb |
| 20260901075230 | 77 | 128 | 2.0 | 3.0 | 0.00 | 0.00 | 0.00 | 85 | 1014.4 |
| 20260901074738 | 77 | 128 | 3.0 | 4.0 | 0.00 | 0.00 | 0.00 | 85 | 1014.5 |
| 20260901074601 | 77 | 128 | 2.0 | 4.0 | 0.00 | 0.00 | 0.00 | 85 | 1011.8 |
| 20260901074252 | 77 | 128 | 2.0 | 6.0 | 0.00 | 0.00 | 0.00 | 85 | 1014.4 |
| 20260901073742 | 77 | 128 | 3.0 | 7.0 | 0.00 | 0.00 | 0.00 | 85 | 1014.4 |
| 20260901073225 | 77 | 116 | 4.0 | 7.0 | 0.00 | 0.00 | 0.00 | 84 | 1014.4 |
| 20260901073046 | 77 | 116 | 2.0 | 5.0 | 0.00 | 0.00 | 0.00 | 84 | 1011.7 |
| 20260901072737 | 78 | 113 | 3.0 | 5.0 | 0.00 | 0.00 | 0.00 | 84 | 1014.5 |
| 20260901072309 | 78 | 94 | 3.0 | 5.0 | 0.00 | 0.00 | 0.00 | 84 | 1014.4 |
| 20260901071731 | 78 | 58 | 1.0 | 3.0 | 0.00 | 0.00 | 0.00 | 83 | 1014.5 |
| 20260901071528 | 77 | 58 | 2.0 | 4.0 | 0.00 | 0.00 | 0.00 | 83 | 1011.9 |
| 20260901071243 | 78 | 58 | 2.0 | 4.0 | 0.00 | 0.00 | 0.00 | 83 | 1014.5 |
| 20260901070751 | 78 | 58 | 2.0 | 4.0 | 0.00 | 0.00 | 0.00 | 83 | 1014.5 |
| 20260901070242 | 78 | 58 | 2.0 | 4.0 | 0.00 | 0.00 | 0.00 | 82 | 1014.6 |
| 20260901070104 | 78 | 58 | 2.0 | 4.0 | 0.00 | 0.00 | 0.00 | 82 | 1011.9 |
| 20260901070001 | 78 | 58 | 2.0 | 3.0 | 0.00 | 0.00 | 0.00 | 82 | 1011.8 |
| 20260901065727 | 78 | 58 | 2.0 | 3.0 | 0.00 | 0.00 | 0.00 | 82 | 1014.6 |
| 20260901065238 | 79 | 58 | 2.0 | 4.0 | 0.00 | 0.00 | 0.00 | 82 | 1014.5 |
| 20260901064750 | 79 | 58 | 2.0 | 4.0 | 0.00 | 0.00 | 0.00 | 82 | 1014.5 |
| 20260901064547 | 78 | 58 | 2.0 | 4.0 | 0.00 | 0.00 | 0.00 | 82 | 1011.8 |
| 20260901064244 | 79 | 54 | 2.0 | 5.0 | 0.00 | 0.00 | 0.00 | 82 | 1014.5 |
| 20260901063723 | 79 | 54 | 1.0 | 5.0 | 0.00 | 0.00 | 0.00 | 82 | 1014.5 |
| 20260901063236 | 79 | 59 | 2.0 | 6.0 | 0.00 | 0.00 | 0.00 | 82 | 1014.4 |
| 20260901063056 | 79 | 61 | 2.0 | 6.0 | 0.00 | 0.00 | 0.00 | 82 | 1011.8 |
| 20260901062747 | 79 | 55 | 3.0 | 6.0 | 0.00 | 0.00 | 0.00 | 82 | 1014.5 |
| 20260901062231 | 79 | 59 | 4.0 | 7.0 | 0.00 | 0.00 | 0.00 | 82 | 1014.5 |
| 20260901061745 | 80 | 64 | 3.0 | 5.0 | 0.00 | 0.00 | 0.00 | 81 | 1014.6 |
| 20260901061547 | 79 | 64 | 3.0 | 5.0 | 0.00 | 0.00 | 0.00 | 81 | 1012.0 |
| 20260901061231 | 80 | 63 | 3.0 | 6.0 | 0.00 | 0.00 | 0.00 | 81 | 1014.6 |
| 20260901060742 | 80 | 66 | 2.0 | 6.0 | 0.00 | 0.00 | 0.00 | 81 | 1014.7 |
| 20260901060227 | 80 | 65 | 3.0 | 5.0 | 0.00 | 0.00 | 0.00 | 81 | 1014.7 |
| 20260901060054 | 79 | 91 | 2.0 | 5.0 | 0.00 | 0.00 | 0.00 | 81 | 1012.1 |
| 20260901055737 | 80 | 97 | 3.0 | 5.0 | 0.00 | 0.00 | 0.00 | 81 | 1014.8 |
| 20260901055250 | 80 | 94 | 3.0 | 6.0 | 0.00 | 0.00 | 0.00 | 82 | 1014.7 |
| 20260901054734 | 80 | 92 | 3.0 | 7.0 | 0.00 | 0.00 | 0.00 | 82 | 1014.7 |
| 20260901054558 | 79 | 116 | 3.0 | 7.0 | 0.00 | 0.00 | 0.00 | 82 | 1012.0 |
| 20260901054248 | 80 | 96 | 4.0 | 7.0 | 0.00 | 0.00 | 0.00 | 82 | 1014.7 |
| 20260901053730 | 79 | 95 | 4.0 | 6.0 | 0.00 | 0.00 | 0.00 | 82 | 1014.7 |
| 20260901053242 | 79 | 88 | 3.0 | 6.0 | 0.00 | 0.00 | 0.00 | 82 | 1014.7 |
| 20260901053000 | 79 | 101 | 2.0 | 6.0 | 0.00 | 0.00 | 0.00 | 82 | 1012.0 |
| 20260901052727 | 79 | 111 | 2.0 | 6.0 | 0.00 | 0.00 | 0.00 | 82 | 1014.8 |
| 20260901052239 | 80 | 111 | 2.0 | 6.0 | 0.00 | 0.00 | 0.00 | 82 | 1014.9 |
| 20260901051721 | 80 | 84 | 3.0 | 6.0 | 0.00 | 0.00 | 0.00 | 82 | 1014.8 |
| 20260901051513 | 79 | 93 | 2.0 | 4.0 | 0.00 | 0.00 | 0.00 | 81 | 1012.2 |
| 20260901051231 | 80 | 93 | 2.0 | 4.0 | 0.00 | 0.00 | 0.00 | 81 | 1014.9 |
| 20260901050740 | 80 | 65 | 0.0 | 2.0 | 0.00 | 0.00 | 0.00 | 80 | 1014.9 |
| 20260901050226 | 80 | 65 | 0.0 | 2.0 | 0.00 | 0.00 | 0.00 | 80 | 1014.9 |
| 20260901050019 | 80 | 65 | 0.0 | 2.0 | 0.00 | 0.00 | 0.00 | 80 | 1012.2 |
| 20260901045738 | 80 | 65 | 0.0 | 0.0 | 0.00 | 0.00 | 0.00 | 80 | 1014.9 |
| 20260901045222 | 80 | 65 | 0.0 | 3.0 | 0.00 | 0.00 | 0.00 | 80 | 1014.9 |
| 20260901044733 | 80 | 65 | 1.0 | 3.0 | 0.00 | 0.00 | 0.00 | 79 | 1014.8 |
| 20260901044514 | 80 | 65 | 1.0 | 2.0 | 0.00 | 0.00 | 0.00 | 79 | 1012.1 |
| 20260901044248 | 81 | 65 | 1.0 | 2.0 | 0.00 | 0.00 | 0.00 | 79 | 1014.8 |
| 20260901043731 | 81 | 65 | 1.0 | 2.0 | 0.00 | 0.00 | 0.00 | 78 | 1014.8 |
| 20260901043239 | 81 | 65 | 1.0 | 2.0 | 0.00 | 0.00 | 0.00 | 78 | 1014.8 |
| 20260901043014 | 80 | 65 | 1.0 | 2.0 | 0.00 | 0.00 | 0.00 | 78 | 1012.0 |
| 20260901042722 | 81 | 65 | 1.0 | 2.0 | 0.00 | 0.00 | 0.00 | 78 | 1014.7 |
| 20260901042233 | 81 | 65 | 1.0 | 2.0 | 0.00 | 0.00 | 0.00 | 77 | 1014.7 |
| 20260901041743 | 81 | 65 | 1.0 | 2.0 | 0.00 | 0.00 | 0.00 | 77 | 1014.8 |
| 20260901041520 | 81 | 65 | 0.0 | 2.0 | 0.00 | 0.00 | 0.00 | 77 | 1012.1 |
| 20260901041227 | 81 | 65 | 2.0 | 2.0 | 0.00 | 0.00 | 0.00 | 77 | 1014.8 |
| 20260901040755 | 82 | 65 | 1.0 | 2.0 | 0.00 | 0.00 | 0.00 | 77 | 1014.8 |
| 20260901040245 | 82 | 65 | 1.0 | 2.0 | 0.00 | 0.00 | 0.00 | 76 | 1014.8 |
| 20260901040044 | 81 | 65 | 0.0 | 2.0 | 0.00 | 0.00 | 0.00 | 76 | 1012.1 |
| 20260901035731 | 82 | 65 | 0.0 | 1.0 | 0.00 | 0.00 | 0.00 | 76 | 1014.8 |
| 20260901035243 | 82 | 65 | 0.0 | 2.0 | 0.00 | 0.00 | 0.00 | 76 | 1014.8 |
| 20260901034727 | 82 | 65 | 1.0 | 2.0 | 0.00 | 0.00 | 0.00 | 76 | 1014.7 |
| 20260901034550 | 82 | 65 | 0.0 | 2.0 | 0.00 | 0.00 | 0.00 | 75 | 1011.9 |
| 20260901034239 | 82 | 65 | 1.0 | 3.0 | 0.00 | 0.00 | 0.00 | 76 | 1014.6 |
| 20260901033731 | 83 | 65 | 1.0 | 3.0 | 0.00 | 0.00 | 0.00 | 75 | 1014.6 |
| 20260901033245 | 83 | 65 | 2.0 | 3.0 | 0.00 | 0.00 | 0.00 | 75 | 1014.6 |
| 20260901033044 | 82 | 65 | 0.0 | 3.0 | 0.00 | 0.00 | 0.00 | 75 | 1011.9 |
| 20260901032728 | 83 | 65 | 2.0 | 3.0 | 0.00 | 0.00 | 0.00 | 75 | 1014.6 |
| 20260901032255 | 83 | 65 | 2.0 | 3.0 | 0.00 | 0.00 | 0.00 | 75 | 1014.5 |
| 20260901031747 | 83 | 65 | 2.0 | 4.0 | 0.00 | 0.00 | 0.00 | 75 | 1014.5 |
| 20260901031528 | 83 | 65 | 2.0 | 4.0 | 0.00 | 0.00 | 0.00 | 75 | 1011.7 |
| 20260901031230 | 83 | 65 | 2.0 | 4.0 | 0.00 | 0.00 | 0.00 | 75 | 1014.4 |
| 20260901030741 | 83 | 65 | 2.0 | 4.0 | 0.00 | 0.00 | 0.00 | 75 | 1014.4 |
| 20260901030226 | 84 | 66 | 3.0 | 4.0 | 0.00 | 0.00 | 0.00 | 75 | 1014.5 |
| 20260901030034 | 83 | 66 | 2.0 | 4.0 | 0.00 | 0.00 | 0.00 | 75 | 1011.7 |
| 20260901025737 | 84 | 71 | 2.0 | 4.0 | 0.00 | 0.00 | 0.00 | 74 | 1014.5 |
| 20260901025249 | 84 | 71 | 3.0 | 5.0 | 0.00 | 0.00 | 0.00 | 74 | 1014.4 |
| 20260901024731 | 84 | 87 | 3.0 | 7.0 | 0.00 | 0.00 | 0.00 | 74 | 1014.3 |
| 20260901024531 | 83 | 73 | 2.0 | 7.0 | 0.00 | 0.00 | 0.00 | 73 | 1011.5 |
| 20260901024301 | 84 | 92 | 3.0 | 7.0 | 0.00 | 0.00 | 0.00 | 73 | 1014.3 |
| 20260901023722 | 84 | 94 | 4.0 | 7.0 | 0.00 | 0.00 | 0.00 | 73 | 1014.3 |
| 20260901023233 | 84 | 90 | 4.0 | 7.0 | 0.00 | 0.00 | 0.00 | 73 | 1014.2 |
| 20260901023011 | 84 | 87 | 3.0 | 6.0 | 0.00 | 0.00 | 0.00 | 73 | 1011.4 |
| 20260901022744 | 84 | 92 | 3.0 | 6.0 | 0.00 | 0.00 | 0.00 | 73 | 1014.2 |
| 20260901022226 | 85 | 99 | 3.0 | 6.0 | 0.00 | 0.00 | 0.00 | 72 | 1014.2 |
| 20260901021736 | 85 | 99 | 3.0 | 6.0 | 0.00 | 0.00 | 0.00 | 72 | 1014.1 |
| 20260901021558 | 84 | 99 | 3.0 | 6.0 | 0.00 | 0.00 | 0.00 | 72 | 1011.4 |
| 20260901021249 | 85 | 99 | 3.0 | 4.0 | 0.00 | 0.00 | 0.00 | 72 | 1014.1 |
| 20260901020727 | 85 | 99 | 3.0 | 4.0 | 0.00 | 0.00 | 0.00 | 71 | 1014.0 |
| 20260901020240 | 86 | 75 | 2.0 | 4.0 | 0.00 | 0.00 | 0.00 | 71 | 1014.0 |
| 20260901020007 | 85 | 96 | 2.0 | 4.0 | 0.00 | 0.00 | 0.00 | 70 | 1011.2 |
| 20260901015723 | 86 | 96 | 3.0 | 4.0 | 0.00 | 0.00 | 0.00 | 70 | 1013.9 |
| 20260901015234 | 86 | 99 | 2.0 | 3.0 | 0.00 | 0.00 | 0.00 | 69 | 1013.9 |
| 20260901014746 | 86 | 99 | 2.0 | 4.0 | 0.00 | 0.00 | 0.00 | 69 | 1013.9 |
| 20260901014516 | 86 | 99 | 1.0 | 4.0 | 0.00 | 0.00 | 0.00 | 68 | 1011.1 |
| 20260901014231 | 87 | 99 | 2.0 | 4.0 | 0.00 | 0.00 | 0.00 | 68 | 1013.9 |
| 20260901013743 | 87 | 216 | 2.0 | 3.0 | 0.00 | 0.00 | 0.00 | 68 | 1013.8 |
| 20260901013225 | 87 | 216 | 2.0 | 3.0 | 0.00 | 0.00 | 0.00 | 68 | 1013.7 |
| 20260901013010 | 87 | 216 | 2.0 | 3.0 | 0.00 | 0.00 | 0.00 | 67 | 1010.9 |
| 20260901012752 | 87 | 216 | 2.0 | 3.0 | 0.00 | 0.00 | 0.00 | 67 | 1013.7 |
| 20260901012243 | 87 | 216 | 2.0 | 2.0 | 0.00 | 0.00 | 0.00 | 67 | 1013.7 |
| 20260901011733 | 88 | 216 | 1.0 | 2.0 | 0.00 | 0.00 | 0.00 | 66 | 1013.8 |
| 20260901011531 | 87 | 216 | 0.0 | 2.0 | 0.00 | 0.00 | 0.00 | 66 | 1011.0 |
| 20260901011308 | 88 | 216 | 1.0 | 1.0 | 0.00 | 0.00 | 0.00 | 65 | 1013.8 |
| 20260901010728 | 88 | 216 | 1.0 | 1.0 | 0.00 | 0.00 | 0.00 | 65 | 1013.9 |
| 20260901010239 | 88 | 216 | 0.0 | 1.0 | 0.00 | 0.00 | 0.00 | 65 | 1013.8 |
| 20260901010013 | 88 | 216 | 0.0 | 1.0 | 0.00 | 0.00 | 0.00 | 65 | 1011.0 |
| 20260901005722 | 88 | 216 | 0.0 | 1.0 | 0.00 | 0.00 | 0.00 | 65 | 1013.8 |
| 20260901005249 | 89 | 216 | 0.0 | 2.0 | 0.00 | 0.00 | 0.00 | 65 | 1013.9 |
| 20260901004731 | 89 | 216 | 1.0 | 2.0 | 0.00 | 0.00 | 0.00 | 65 | 1013.9 |
| 20260901004528 | 88 | 216 | 1.0 | 2.0 | 0.00 | 0.00 | 0.00 | 65 | 1011.0 |
| 20260901004243 | 89 | 216 | 1.0 | 2.0 | 0.00 | 0.00 | 0.00 | 65 | 1013.9 |
| 20260901003724 | 89 | 216 | 1.0 | 2.0 | 0.00 | 0.00 | 0.00 | 65 | 1013.9 |
| 20260901003235 | 89 | 216 | 1.0 | 2.0 | 0.00 | 0.00 | 0.00 | 65 | 1013.9 |
| 20260901003023 | 89 | 216 | 0.0 | 2.0 | 0.00 | 0.00 | 0.00 | 65 | 1011.0 |
| 20260901002746 | 90 | 216 | 0.0 | 3.0 | 0.00 | 0.00 | 0.00 | 65 | 1013.9 |
| 20260901002236 | 90 | 216 | 1.0 | 3.0 | 0.00 | 0.00 | 0.00 | 65 | 1014.0 |
| 20260901001743 | 90 | 216 | 2.0 | 2.0 | 0.00 | 0.00 | 0.00 | 64 | 1014.0 |
| 20260901001600 | 90 | 216 | 0.0 | 1.0 | 0.00 | 0.00 | 0.00 | 63 | 1011.1 |
| 20260901001226 | 90 | 216 | 0.0 | 0.0 | 0.00 | 0.00 | 0.00 | 62 | 1013.9 |
| 20260901000734 | 90 | 216 | 0.0 | 0.0 | 0.00 | 0.00 | 0.00 | 62 | 1014.0 |
| 20260901000245 | 90 | 216 | 0.0 | 2.0 | 0.00 | 0.00 | 0.00 | 62 | 1014.0 |
| 20260901000058 | 90 | 216 | 0.0 | 2.0 | 0.00 | 0.00 | 0.00 | 62 | 1011.2 |
| 20260831235727 | 91 | 216 | 1.0 | 2.0 | 0.00 | 0.00 | 0.00 | 62 | 1014.0 |
| 20260831235240 | 91 | 216 | 0.0 | 2.0 | 0.00 | 0.00 | 0.00 | 62 | 1014.0 |
| 20260831234723 | 91 | 216 | 1.0 | 3.0 | 0.00 | 0.00 | 0.00 | 61 | 1014.0 |
| 20260831234504 | 91 | 216 | 1.0 | 3.0 | 0.00 | 0.00 | 0.00 | 61 | 1011.1 |
| 20260831234311 | 92 | 216 | 1.0 | 3.0 | 0.00 | 0.00 | 0.00 | 61 | 1014.0 |
| 20260831233732 | 92 | 216 | 1.0 | 3.0 | 0.00 | 0.00 | 0.00 | 60 | 1014.0 |
| 20260831233243 | 92 | 216 | 1.0 | 2.0 | 0.00 | 0.00 | 0.00 | 60 | 1014.1 |
| 20260831233031 | 92 | 216 | 1.0 | 2.0 | 0.00 | 0.00 | 0.00 | 60 | 1011.2 |
| 20260831232726 | 92 | 216 | 1.0 | 2.0 | 0.00 | 0.00 | 0.00 | 61 | 1014.1 |
| 20260831232259 | 93 | 216 | 1.0 | 2.0 | 0.00 | 0.00 | 0.00 | 60 | 1014.1 |
| 20260831231721 | 93 | 216 | 2.0 | 4.0 | 0.00 | 0.00 | 0.00 | 59 | 1014.1 |
| 20260831231505 | 92 | 216 | 1.0 | 4.0 | 0.00 | 0.00 | 0.00 | 59 | 1011.2 |
| 20260831231234 | 93 | 216 | 2.0 | 4.0 | 0.00 | 0.00 | 0.00 | 60 | 1014.1 |
| 20260831230738 | 93 | 216 | 3.0 | 4.0 | 0.00 | 0.00 | 0.00 | 59 | 1014.1 |
| 20260831230221 | 93 | 216 | 1.0 | 4.0 | 0.00 | 0.00 | 0.00 | 61 | 1014.1 |
| 20260831230010 | 93 | 216 | 1.0 | 5.0 | 0.00 | 0.00 | 0.00 | 60 | 1011.2 |
| 20260831225733 | 93 | 216 | 3.0 | 5.0 | 0.00 | 0.00 | 0.00 | 59 | 1014.1 |
| 20260831225245 | 93 | 216 | 3.0 | 5.0 | 0.00 | 0.00 | 0.00 | 59 | 1014.1 |
| 20260831224736 | 93 | 216 | 2.0 | 4.0 | 0.00 | 0.00 | 0.00 | 62 | 1014.1 |
| 20260831224553 | 93 | 216 | 1.0 | 4.0 | 0.00 | 0.00 | 0.00 | 62 | 1011.2 |
| 20260831224248 | 93 | 216 | 2.0 | 4.0 | 0.00 | 0.00 | 0.00 | 62 | 1014.1 |
| 20260831223729 | 93 | 216 | 3.0 | 5.0 | 0.00 | 0.00 | 0.00 | 60 | 1014.1 |
| 20260831223240 | 92 | 216 | 3.0 | 6.0 | 0.00 | 0.00 | 0.00 | 60 | 1014.1 |
| 20260831223056 | 92 | 216 | 3.0 | 6.0 | 0.00 | 0.00 | 0.00 | 60 | 1011.2 |
| 20260831222747 | 92 | 216 | 3.0 | 6.0 | 0.00 | 0.00 | 0.00 | 61 | 1014.2 |
| 20260831222230 | 92 | 252 | 3.0 | 7.0 | 0.00 | 0.00 | 0.00 | 62 | 1014.2 |
| 20260831221800 | 92 | 252 | 2.0 | 7.0 | 0.00 | 0.00 | 0.00 | 62 | 1014.2 |
| 20260831221543 | 91 | 252 | 3.0 | 7.0 | 0.00 | 0.00 | 0.00 | 63 | 1011.3 |
| 20260831221250 | 92 | 252 | 4.0 | 7.0 | 0.00 | 0.00 | 0.00 | 63 | 1014.1 |
| 20260831220731 | 92 | 248 | 4.0 | 5.0 | 0.00 | 0.00 | 0.00 | 65 | 1014.2 |
| 20260831220242 | 91 | 248 | 4.0 | 5.0 | 0.00 | 0.00 | 0.00 | 64 | 1014.2 |
| 20260831220039 | 91 | 248 | 3.0 | 5.0 | 0.00 | 0.00 | 0.00 | 63 | 1011.3 |
| 20260831215724 | 91 | 248 | 3.0 | 7.0 | 0.00 | 0.00 | 0.00 | 62 | 1014.2 |
| 20260831215249 | 91 | 248 | 3.0 | 7.0 | 0.00 | 0.00 | 0.00 | 63 | 1014.2 |
| 20260831214733 | 91 | 263 | 4.0 | 7.0 | 0.00 | 0.00 | 0.00 | 64 | 1014.2 |
| 20260831214532 | 90 | 252 | 3.0 | 7.0 | 0.00 | 0.00 | 0.00 | 65 | 1011.3 |
| 20260831214306 | 91 | 252 | 4.0 | 7.0 | 0.00 | 0.00 | 0.00 | 63 | 1014.2 |
| 20260831213728 | 91 | 229 | 5.0 | 8.0 | 0.00 | 0.00 | 0.00 | 63 | 1014.2 |
| 20260831213239 | 90 | 225 | 7.0 | 9.0 | 0.00 | 0.00 | 0.00 | 63 | 1014.3 |
| 20260831213052 | 90 | 252 | 6.0 | 9.0 | 0.00 | 0.00 | 0.00 | 63 | 1011.4 |
| 20260831212723 | 90 | 236 | 6.0 | 10.0 | 0.00 | 0.00 | 0.00 | 64 | 1014.3 |
| 20260831212235 | 90 | 221 | 6.0 | 10.0 | 0.00 | 0.00 | 0.00 | 65 | 1014.4 |
| 20260831211744 | 90 | 220 | 6.0 | 10.0 | 0.00 | 0.00 | 0.00 | 64 | 1014.3 |
| 20260831211511 | 90 | 214 | 5.0 | 10.0 | 0.00 | 0.00 | 0.00 | 63 | 1011.5 |
| 20260831211228 | 90 | 219 | 7.0 | 10.0 | 0.00 | 0.00 | 0.00 | 65 | 1014.4 |
| 20260831210738 | 90 | 233 | 6.0 | 9.0 | 0.00 | 0.00 | 0.00 | 64 | 1014.4 |
| 20260831210249 | 91 | 211 | 6.0 | 9.0 | 0.00 | 0.00 | 0.00 | 63 | 1014.5 |
| 20260831210015 | 90 | 222 | 5.0 | 11.0 | 0.00 | 0.00 | 0.00 | 63 | 1011.5 |
| 20260831205731 | 91 | 202 | 5.0 | 11.0 | 0.00 | 0.00 | 0.00 | 62 | 1014.4 |
| 20260831205305 | 91 | 230 | 8.0 | 12.0 | 0.00 | 0.00 | 0.00 | 60 | 1014.4 |
| 20260831204752 | 91 | 217 | 8.0 | 12.0 | 0.00 | 0.00 | 0.00 | 62 | 1014.4 |
| 20260831204539 | 90 | 220 | 7.0 | 14.0 | 0.00 | 0.00 | 0.00 | 62 | 1011.6 |
| 20260831204241 | 91 | 215 | 9.0 | 15.0 | 0.00 | 0.00 | 0.00 | 64 | 1014.5 |
| 20260831203722 | 91 | 247 | 9.0 | 15.0 | 0.00 | 0.00 | 0.00 | 62 | 1014.6 |
| 20260831203254 | 91 | 245 | 9.0 | 14.0 | 0.00 | 0.00 | 0.00 | 63 | 1014.5 |
| 20260831203025 | 90 | 217 | 8.0 | 12.0 | 0.00 | 0.00 | 0.00 | 66 | 1011.7 |
| 20260831202743 | 90 | 254 | 9.0 | 12.0 | 0.00 | 0.00 | 0.00 | 67 | 1014.6 |
| 20260831202227 | 89 | 216 | 7.0 | 11.0 | 0.00 | 0.00 | 0.00 | 67 | 1014.6 |
| 20260831201759 | 89 | 242 | 6.0 | 14.0 | 0.00 | 0.00 | 0.00 | 66 | 1014.6 |
| 20260831201559 | 89 | 238 | 8.0 | 14.0 | 0.00 | 0.00 | 0.00 | 66 | 1011.8 |
| 20260831201513 | 89 | 241 | 8.0 | 14.0 | 0.00 | 0.00 | 0.00 | 66 | 1011.8 |
| 20260831201222 | 89 | 236 | 9.0 | 11.0 | 0.00 | 0.00 | 0.00 | 69 | 1014.6 |
| 20260831200747 | 89 | 232 | 6.0 | 12.0 | 0.00 | 0.00 | 0.00 | 67 | 1014.7 |
| 20260831200238 | 88 | 242 | 7.0 | 10.0 | 0.00 | 0.00 | 0.00 | 69 | 1014.7 |
| 20260831200047 | 88 | 237 | 5.0 | 10.0 | 0.00 | 0.00 | 0.00 | 70 | 1011.8 |
| 20260831195749 | 88 | 245 | 7.0 | 10.0 | 0.00 | 0.00 | 0.00 | 68 | 1014.7 |
| 20260831195240 | 88 | 211 | 6.0 | 9.0 | 0.00 | 0.00 | 0.00 | 69 | 1014.6 |
| 20260831194722 | 88 | 228 | 6.0 | 10.0 | 0.00 | 0.00 | 0.00 | 68 | 1014.7 |
| 20260831194531 | 88 | 233 | 5.0 | 10.0 | 0.00 | 0.00 | 0.00 | 69 | 1011.9 |
| 20260831194234 | 88 | 233 | 7.0 | 10.0 | 0.00 | 0.00 | 0.00 | 68 | 1014.7 |
| 20260831193740 | 88 | 238 | 6.0 | 11.0 | 0.00 | 0.00 | 0.00 | 66 | 1014.8 |
| 20260831193222 | 88 | 237 | 8.0 | 11.0 | 0.00 | 0.00 | 0.00 | 66 | 1014.7 |
| 20260831193036 | 88 | 240 | 5.0 | 9.0 | 0.00 | 0.00 | 0.00 | 66 | 1011.9 |
| 20260831192734 | 89 | 229 | 6.0 | 8.0 | 0.00 | 0.00 | 0.00 | 67 | 1014.7 |
| 20260831192247 | 89 | 239 | 6.0 | 9.0 | 0.00 | 0.00 | 0.00 | 66 | 1014.7 |
| 20260831191730 | 89 | 235 | 6.0 | 10.0 | 0.00 | 0.00 | 0.00 | 65 | 1014.7 |
| 20260831191528 | 89 | 215 | 5.0 | 10.0 | 0.00 | 0.00 | 0.00 | 66 | 1011.8 |
| 20260831191303 | 90 | 223 | 7.0 | 10.0 | 0.00 | 0.00 | 0.00 | 66 | 1014.7 |
| 20260831190722 | 90 | 242 | 6.0 | 11.0 | 0.00 | 0.00 | 0.00 | 65 | 1014.6 |
| 20260831190309 | 90 | 232 | 6.0 | 10.0 | 0.00 | 0.00 | 0.00 | 65 | 1014.6 |
| 20260831190056 | 90 | 238 | 6.0 | 10.0 | 0.00 | 0.00 | 0.00 | 66 | 1011.7 |
| 20260831185732 | 91 | 201 | 7.0 | 10.0 | 0.00 | 0.00 | 0.00 | 67 | 1014.6 |
| 20260831185243 | 90 | 220 | 6.0 | 10.0 | 0.00 | 0.00 | 0.00 | 64 | 1014.6 |
| 20260831184726 | 90 | 239 | 5.0 | 9.0 | 0.00 | 0.00 | 0.00 | 64 | 1014.6 |
| 20260831184546 | 90 | 217 | 4.0 | 9.0 | 0.00 | 0.00 | 0.00 | 61 | 1011.8 |
| 20260831184240 | 90 | 232 | 4.0 | 9.0 | 0.00 | 0.00 | 0.00 | 62 | 1014.7 |
| 20260831183722 | 90 | 225 | 4.0 | 6.0 | 0.00 | 0.00 | 0.00 | 63 | 1014.6 |
| 20260831183233 | 90 | 215 | 4.0 | 6.0 | 0.00 | 0.00 | 0.00 | 61 | 1014.6 |
| 20260831183058 | 90 | 215 | 3.0 | 5.0 | 0.00 | 0.00 | 0.00 | 62 | 1011.8 |
| 20260831182744 | 90 | 215 | 2.0 | 5.0 | 0.00 | 0.00 | 0.00 | 62 | 1014.6 |
| 20260831182222 | 90 | 215 | 3.0 | 6.0 | 0.00 | 0.00 | 0.00 | 61 | 1014.6 |
| 20260831181735 | 91 | 215 | 4.0 | 6.0 | 0.00 | 0.00 | 0.00 | 61 | 1014.5 |
| 20260831181550 | 90 | 202 | 4.0 | 6.0 | 0.00 | 0.00 | 0.00 | 61 | 1011.7 |
| 20260831181246 | 91 | 236 | 2.0 | 7.0 | 0.00 | 0.00 | 0.00 | 62 | 1014.6 |
| 20260831180726 | 90 | 236 | 5.0 | 7.0 | 0.00 | 0.00 | 0.00 | 65 | 1014.6 |
| 20260831180237 | 90 | 192 | 4.0 | 7.0 | 0.00 | 0.00 | 0.00 | 64 | 1014.6 |
| 20260831180050 | 90 | 241 | 3.0 | 8.0 | 0.00 | 0.00 | 0.00 | 63 | 1011.7 |
| 20260831175749 | 90 | 252 | 3.0 | 7.0 | 0.00 | 0.00 | 0.00 | 66 | 1014.5 |
| 20260831175230 | 90 | 258 | 2.0 | 8.0 | 0.00 | 0.00 | 0.00 | 64 | 1014.5 |
| 20260831174800 | 90 | 259 | 4.0 | 8.0 | 0.00 | 0.00 | 0.00 | 65 | 1014.5 |
| 20260831174523 | 89 | 240 | 2.0 | 9.0 | 0.00 | 0.00 | 0.00 | 64 | 1011.8 |
| 20260831174223 | 90 | 232 | 4.0 | 9.0 | 0.00 | 0.00 | 0.00 | 64 | 1014.6 |
| 20260831173734 | 89 | 227 | 5.0 | 9.0 | 0.00 | 0.00 | 0.00 | 64 | 1014.7 |
| 20260831173307 | 89 | 238 | 4.0 | 8.0 | 0.00 | 0.00 | 0.00 | 63 | 1014.7 |
| 20260831173101 | 89 | 238 | 4.0 | 8.0 | 0.00 | 0.00 | 0.00 | 64 | 1011.8 |
| 20260831172728 | 89 | 261 | 4.0 | 6.0 | 0.00 | 0.00 | 0.00 | 66 | 1014.7 |
| 20260831172259 | 89 | 308 | 3.0 | 7.0 | 0.00 | 0.00 | 0.00 | 67 | 1014.7 |
| 20260831171722 | 89 | 221 | 4.0 | 7.0 | 0.00 | 0.00 | 0.00 | 65 | 1014.7 |
| 20260831171539 | 88 | 251 | 3.0 | 7.0 | 0.00 | 0.00 | 0.00 | 64 | 1011.8 |
| 20260831171250 | 89 | 243 | 3.0 | 7.0 | 0.00 | 0.00 | 0.00 | 67 | 1014.6 |
| 20260831170738 | 88 | 281 | 3.0 | 8.0 | 0.00 | 0.00 | 0.00 | 68 | 1014.5 |
| 20260831170309 | 88 | 250 | 3.0 | 10.0 | 0.00 | 0.00 | 0.00 | 69 | 1014.5 |
| 20260831170035 | 87 | 288 | 5.0 | 10.0 | 0.00 | 0.00 | 0.00 | 69 | 1011.6 |
| 20260831165728 | 87 | 260 | 4.0 | 10.0 | 0.00 | 0.00 | 0.00 | 70 | 1014.4 |
| 20260831165240 | 86 | 291 | 3.0 | 10.0 | 0.00 | 0.00 | 0.00 | 71 | 1014.3 |
| 20260831164723 | 86 | 272 | 5.0 | 10.0 | 0.00 | 0.00 | 0.00 | 70 | 1014.4 |
| 20260831164530 | 85 | 240 | 5.0 | 10.0 | 0.00 | 0.00 | 0.00 | 72 | 1011.5 |
| 20260831164237 | 85 | 279 | 4.0 | 8.0 | 0.00 | 0.00 | 0.00 | 72 | 1014.4 |
| 20260831163744 | 85 | 308 | 4.0 | 7.0 | 0.00 | 0.00 | 0.00 | 74 | 1014.2 |
| 20260831163227 | 84 | 234 | 3.0 | 8.0 | 0.00 | 0.00 | 0.00 | 73 | 1014.1 |
| 20260831163036 | 84 | 233 | 4.0 | 8.0 | 0.00 | 0.00 | 0.00 | 73 | 1011.3 |
| 20260831162758 | 84 | 247 | 5.0 | 8.0 | 0.00 | 0.00 | 0.00 | 73 | 1014.1 |
| 20260831162248 | 84 | 217 | 5.0 | 8.0 | 0.00 | 0.00 | 0.00 | 73 | 1014.3 |
| 20260831161737 | 84 | 252 | 5.0 | 7.0 | 0.00 | 0.00 | 0.00 | 73 | 1014.3 |
| 20260831161540 | 83 | 286 | 4.0 | 7.0 | 0.00 | 0.00 | 0.00 | 73 | 1011.4 |
| 20260831161250 | 84 | 237 | 4.0 | 5.0 | 0.00 | 0.00 | 0.00 | 72 | 1014.2 |
| 20260831160731 | 84 | 251 | 3.0 | 6.0 | 0.00 | 0.00 | 0.00 | 73 | 1013.9 |
| 20260831160238 | 84 | 257 | 3.0 | 6.0 | 0.00 | 0.00 | 0.00 | 75 | 1013.9 |
| 20260831160044 | 83 | 269 | 3.0 | 6.0 | 0.00 | 0.00 | 0.00 | 76 | 1011.0 |
| 20260831155746 | 83 | 251 | 3.0 | 5.0 | 0.00 | 0.00 | 0.00 | 76 | 1013.7 |
| 20260831155237 | 83 | 327 | 2.0 | 3.0 | 0.00 | 0.00 | 0.00 | 75 | 1013.7 |
| 20260831154749 | 83 | 14 | 2.0 | 6.0 | 0.00 | 0.00 | 0.00 | 76 | 1013.6 |
| 20260831154521 | 82 | 333 | 1.0 | 6.0 | 0.00 | 0.00 | 0.00 | 76 | 1010.8 |
| 20260831154232 | 83 | 333 | 3.0 | 8.0 | 0.00 | 0.00 | 0.00 | 76 | 1013.5 |
| 20260831153740 | 83 | 348 | 4.0 | 8.0 | 0.00 | 0.00 | 0.00 | 76 | 1013.5 |
| 20260831153224 | 82 | 325 | 4.0 | 8.0 | 0.00 | 0.00 | 0.00 | 77 | 1013.4 |
| 20260831153022 | 82 | 330 | 4.0 | 9.0 | 0.00 | 0.00 | 0.00 | 77 | 1010.3 |
| 20260831152732 | 82 | 310 | 6.0 | 9.0 | 0.00 | 0.00 | 0.00 | 77 | 1013.4 |
| 20260831152306 | 82 | 319 | 6.0 | 9.0 | 0.00 | 0.00 | 0.00 | 78 | 1013.6 |
| 20260831151726 | 82 | 277 | 4.0 | 8.0 | 0.00 | 0.00 | 0.00 | 76 | 1013.6 |
| 20260831151517 | 81 | 306 | 4.0 | 6.0 | 0.00 | 0.00 | 0.00 | 76 | 1010.7 |
| 20260831151238 | 82 | 313 | 5.0 | 6.0 | 0.00 | 0.00 | 0.00 | 78 | 1013.5 |
| 20260831150722 | 82 | 314 | 3.0 | 12.0 | 0.00 | 0.00 | 0.00 | 78 | 1013.5 |
| 20260831150234 | 81 | 326 | 5.0 | 12.0 | 0.00 | 0.00 | 0.00 | 78 | 1013.7 |
| 20260831150002 | 81 | 317 | 8.0 | 12.0 | 0.00 | 0.00 | 0.00 | 78 | 1010.8 |
| 20260831145745 | 81 | 317 | 7.0 | 10.0 | 0.00 | 0.00 | 0.00 | 79 | 1013.5 |
| 20260831145228 | 81 | 308 | 3.0 | 7.0 | 0.00 | 0.00 | 0.00 | 82 | 1013.3 |
| 20260831144735 | 80 | 315 | 1.0 | 6.0 | 0.00 | 0.00 | 0.00 | 83 | 1012.9 |
| 20260831144519 | 79 | 315 | 3.0 | 6.0 | 0.00 | 0.00 | 0.00 | 83 | 1010.1 |
| 20260831144250 | 80 | 315 | 4.0 | 6.0 | 0.00 | 0.00 | 0.00 | 83 | 1012.8 |
| 20260831143733 | 79 | 254 | 2.0 | 4.0 | 0.00 | 0.00 | 0.00 | 83 | 1013.0 |
| 20260831143244 | 79 | 254 | 2.0 | 4.0 | 0.00 | 0.00 | 0.00 | 83 | 1013.1 |
| 20260831143022 | 78 | 254 | 1.0 | 5.0 | 0.00 | 0.00 | 0.00 | 84 | 1010.3 |
| 20260831142727 | 79 | 254 | 0.0 | 5.0 | 0.00 | 0.00 | 0.00 | 84 | 1013.1 |
| 20260831142239 | 78 | 254 | 3.0 | 8.0 | 0.00 | 0.00 | 0.00 | 84 | 1013.1 |
| 20260831141722 | 78 | 254 | 3.0 | 12.0 | 0.00 | 0.00 | 0.00 | 84 | 1013.2 |
| 20260831141526 | 77 | 243 | 4.0 | 12.0 | 0.00 | 0.00 | 0.00 | 84 | 1010.6 |
| 20260831141236 | 78 | 250 | 7.0 | 12.0 | 0.00 | 0.00 | 0.00 | 84 | 1013.6 |
| 20260831140743 | 77 | 261 | 4.0 | 8.0 | 0.00 | 0.00 | 0.00 | 84 | 1013.3 |
| 20260831140227 | 77 | 302 | 3.0 | 8.0 | 0.00 | 0.00 | 0.00 | 84 | 1013.2 |
| 20260831140035 | 77 | 277 | 6.0 | 8.0 | 0.00 | 0.00 | 0.00 | 84 | 1010.4 |
| 20260831135739 | 77 | 286 | 4.0 | 8.0 | 0.00 | 0.00 | 0.00 | 84 | 1013.2 |
| 20260831135250 | 77 | 277 | 3.0 | 9.0 | 0.00 | 0.00 | 0.00 | 84 | 1013.2 |
| 20260831134732 | 77 | 297 | 3.0 | 10.0 | 0.00 | 0.00 | 0.00 | 84 | 1013.0 |
| 20260831134528 | 76 | 317 | 5.0 | 13.0 | 0.00 | 0.00 | 0.00 | 85 | 1010.2 |
| 20260831134245 | 77 | 293 | 7.0 | 13.0 | 0.00 | 0.00 | 0.00 | 85 | 1013.2 |
| 20260831133728 | 77 | 298 | 8.0 | 13.0 | 0.00 | 0.00 | 0.00 | 85 | 1013.3 |
| 20260831133257 | 77 | 253 | 10.0 | 13.0 | 0.00 | 0.00 | 0.00 | 85 | 1013.4 |
| 20260831133014 | 76 | 244 | 8.0 | 15.0 | 0.00 | 0.00 | 0.00 | 86 | 1010.6 |
| 20260831132748 | 77 | 254 | 8.0 | 15.0 | 0.00 | 0.00 | 0.00 | 86 | 1013.4 |
| 20260831132231 | 76 | 280 | 9.0 | 15.0 | 0.00 | 0.00 | 0.00 | 87 | 1013.3 |
| 20260831131804 | 76 | 251 | 7.0 | 10.0 | 0.00 | 0.00 | 0.00 | 87 | 1013.5 |
| 20260831131559 | 76 | 257 | 6.0 | 12.0 | 0.00 | 0.00 | 0.00 | 87 | 1010.6 |
| 20260831131228 | 76 | 257 | 6.0 | 12.0 | 0.00 | 0.00 | 0.00 | 87 | 1013.4 |
| 20260831130758 | 76 | 300 | 9.0 | 12.0 | 0.00 | 0.00 | 0.00 | 88 | 1012.9 |
| 20260831130221 | 76 | 292 | 7.0 | 9.0 | 0.00 | 0.00 | 0.00 | 88 | 1013.0 |
| 20260831130037 | 76 | 277 | 5.0 | 10.0 | 0.00 | 0.00 | 0.00 | 88 | 1010.2 |
| 20260831125811 | 76 | 279 | 6.0 | 10.0 | 0.00 | 0.00 | 0.00 | 88 | 1013.1 |
| 20260831125234 | 76 | 256 | 7.0 | 10.0 | 0.00 | 0.00 | 0.00 | 88 | 1013.2 |
| 20260831124746 | 76 | 244 | 6.0 | 11.0 | 0.00 | 0.00 | 0.00 | 89 | 1013.2 |
| 20260831124518 | 75 | 241 | 6.0 | 11.0 | 0.00 | 0.00 | 0.00 | 89 | 1010.5 |
| 20260831124231 | 76 | 269 | 7.0 | 11.0 | 0.00 | 0.00 | 0.00 | 89 | 1013.2 |
| 20260831123742 | 76 | 269 | 8.0 | 11.0 | 0.00 | 0.00 | 0.00 | 89 | 1013.2 |
| 20260831123226 | 76 | 264 | 6.0 | 9.0 | 0.00 | 0.00 | 0.00 | 89 | 1013.1 |
| 20260831123022 | 75 | 257 | 6.0 | 8.0 | 0.00 | 0.00 | 0.00 | 89 | 1010.3 |
| 20260831122737 | 75 | 239 | 5.0 | 8.0 | 0.00 | 0.00 | 0.00 | 89 | 1013.0 |
| 20260831122243 | 75 | 211 | 3.0 | 6.0 | 0.00 | 0.00 | 0.00 | 89 | 1012.8 |
| 20260831121728 | 75 | 211 | 4.0 | 7.0 | 0.00 | 0.00 | 0.00 | 89 | 1012.8 |
| 20260831121524 | 75 | 211 | 4.0 | 8.0 | 0.00 | 0.00 | 0.00 | 89 | 1010.0 |
| 20260831121242 | 75 | 211 | 6.0 | 8.0 | 0.00 | 0.00 | 0.00 | 88 | 1012.7 |
| 20260831120725 | 75 | 211 | 5.0 | 7.0 | 0.00 | 0.00 | 0.00 | 88 | 1012.5 |
| 20260831120237 | 75 | 205 | 4.0 | 7.0 | 0.00 | 0.00 | 0.00 | 88 | 1012.4 |
| 20260831120025 | 75 | 205 | 4.0 | 7.0 | 0.00 | 0.00 | 0.00 | 88 | 1009.6 |
| 20260831115748 | 75 | 205 | 5.0 | 7.0 | 0.00 | 0.00 | 0.00 | 88 | 1012.4 |
| 20260831115231 | 75 | 212 | 5.0 | 6.0 | 0.00 | 0.00 | 0.00 | 88 | 1012.2 |
| 20260831114743 | 76 | 222 | 4.0 | 6.0 | 0.00 | 0.00 | 0.00 | 88 | 1012.0 |
| 20260831114524 | 75 | 207 | 4.0 | 6.0 | 0.00 | 0.00 | 0.00 | 88 | 1009.3 |
| 20260831114230 | 76 | 207 | 4.0 | 6.0 | 0.00 | 0.00 | 0.00 | 88 | 1012.0 |
| 20260831113756 | 76 | 205 | 5.0 | 6.0 | 0.00 | 0.00 | 0.00 | 88 | 1011.9 |
| 20260831113245 | 76 | 205 | 3.0 | 6.0 | 0.00 | 0.00 | 0.00 | 88 | 1011.8 |
| 20260831113119 | 75 | 205 | 4.0 | 6.0 | 0.00 | 0.00 | 0.00 | 88 | 1009.0 |
| 20260831112728 | 76 | 215 | 4.0 | 6.0 | 0.00 | 0.00 | 0.00 | 88 | 1011.7 |
| 20260831112241 | 76 | 215 | 4.0 | 6.0 | 0.00 | 0.00 | 0.00 | 88 | 1011.5 |
| 20260831111753 | 76 | 205 | 4.0 | 5.0 | 0.00 | 0.00 | 0.00 | 88 | 1011.6 |
| 20260831111549 | 75 | 205 | 3.0 | 6.0 | 0.00 | 0.00 | 0.00 | 88 | 1008.7 |
| 20260831111247 | 76 | 205 | 3.0 | 6.0 | 0.00 | 0.00 | 0.00 | 88 | 1011.5 |
| 20260831110728 | 75 | 205 | 5.0 | 6.0 | 0.00 | 0.00 | 0.00 | 87 | 1011.6 |
| 20260831110235 | 75 | 205 | 3.0 | 4.0 | 0.00 | 0.00 | 0.00 | 87 | 1011.4 |
| 20260831110049 | 75 | 205 | 2.0 | 4.0 | 0.00 | 0.00 | 0.00 | 87 | 1008.6 |
| 20260831105746 | 76 | 205 | 2.0 | 4.0 | 0.00 | 0.00 | 0.00 | 87 | 1011.4 |
| 20260831105229 | 76 | 205 | 3.0 | 4.0 | 0.00 | 0.00 | 0.00 | 87 | 1011.6 |
| 20260831104801 | 76 | 205 | 2.0 | 3.0 | 0.00 | 0.00 | 0.00 | 86 | 1011.5 |
| 20260831104526 | 75 | 205 | 1.0 | 3.0 | 0.00 | 0.00 | 0.00 | 86 | 1008.7 |
| 20260831104225 | 76 | 205 | 2.0 | 3.0 | 0.00 | 0.00 | 0.00 | 86 | 1011.5 |
| 20260831103735 | 76 | 205 | 2.0 | 3.0 | 0.00 | 0.00 | 0.00 | 86 | 1011.4 |
| 20260831103247 | 76 | 205 | 2.0 | 3.0 | 0.00 | 0.00 | 0.00 | 86 | 1011.4 |
| 20260831103027 | 75 | 205 | 1.0 | 4.0 | 0.00 | 0.00 | 0.00 | 86 | 1008.6 |
| 20260831102722 | 76 | 205 | 1.0 | 4.0 | 0.00 | 0.00 | 0.00 | 86 | 1011.4 |
| 20260831102232 | 76 | 205 | 2.0 | 4.0 | 0.00 | 0.00 | 0.00 | 86 | 1011.4 |
| 20260831101745 | 76 | 205 | 3.0 | 5.0 | 0.00 | 0.00 | 0.00 | 86 | 1011.3 |
| 20260831101532 | 76 | 205 | 2.0 | 6.0 | 0.00 | 0.00 | 0.00 | 86 | 1008.5 |
| 20260831101231 | 76 | 205 | 3.0 | 6.0 | 0.00 | 0.00 | 0.00 | 86 | 1011.4 |
| 20260831100742 | 76 | 205 | 4.0 | 6.0 | 0.00 | 0.00 | 0.00 | 86 | 1011.3 |
| 20260831100225 | 76 | 205 | 4.0 | 5.0 | 0.00 | 0.00 | 0.00 | 85 | 1011.3 |
| 20260831100039 | 76 | 205 | 3.0 | 5.0 | 0.00 | 0.00 | 0.00 | 85 | 1008.5 |
| 20260831095737 | 76 | 205 | 3.0 | 5.0 | 0.00 | 0.00 | 0.00 | 85 | 1011.3 |
| 20260831095250 | 76 | 205 | 3.0 | 5.0 | 0.00 | 0.00 | 0.00 | 85 | 1011.2 |
| 20260831094730 | 77 | 205 | 3.0 | 4.0 | 0.00 | 0.00 | 0.00 | 85 | 1010.9 |
| 20260831094555 | 76 | 205 | 1.0 | 3.0 | 0.00 | 0.00 | 0.00 | 85 | 1008.1 |
| 20260831094243 | 77 | 205 | 2.0 | 3.0 | 0.00 | 0.00 | 0.00 | 85 | 1010.9 |
| 20260831093724 | 77 | 205 | 2.0 | 3.0 | 0.00 | 0.00 | 0.00 | 84 | 1010.8 |
| 20260831093238 | 77 | 205 | 2.0 | 3.0 | 0.00 | 0.00 | 0.00 | 84 | 1010.9 |
| 20260831093042 | 76 | 205 | 1.0 | 3.0 | 0.00 | 0.00 | 0.00 | 84 | 1008.0 |
| 20260831092748 | 77 | 205 | 1.0 | 3.0 | 0.00 | 0.00 | 0.00 | 84 | 1010.8 |
| 20260831092231 | 77 | 205 | 2.0 | 4.0 | 0.00 | 0.00 | 0.00 | 84 | 1010.7 |
| 20260831091744 | 77 | 205 | 3.0 | 5.0 | 0.00 | 0.00 | 0.00 | 84 | 1010.7 |
| 20260831091523 | 76 | 205 | 2.0 | 5.0 | 0.00 | 0.00 | 0.00 | 83 | 1007.9 |
| 20260831091228 | 77 | 205 | 2.0 | 5.0 | 0.00 | 0.00 | 0.00 | 83 | 1010.6 |
| 20260831090734 | 77 | 205 | 3.0 | 5.0 | 0.00 | 0.00 | 0.00 | 83 | 1010.6 |
| 20260831090306 | 77 | 205 | 3.0 | 8.0 | 0.00 | 0.00 | 0.00 | 83 | 1010.5 |
| 20260831090012 | 77 | 205 | 3.0 | 8.0 | 0.00 | 0.00 | 0.00 | 83 | 1007.8 |
| 20260831085730 | 77 | 205 | 5.0 | 8.0 | 0.00 | 0.00 | 0.00 | 83 | 1010.6 |
| 20260831085240 | 77 | 202 | 5.0 | 8.0 | 0.00 | 0.00 | 0.00 | 83 | 1010.6 |
| 20260831084726 | 77 | 206 | 5.0 | 7.0 | 0.00 | 0.00 | 0.00 | 83 | 1010.6 |
| 20260831084528 | 77 | 209 | 5.0 | 8.0 | 0.00 | 0.00 | 0.00 | 82 | 1007.8 |
| 20260831084239 | 78 | 203 | 6.0 | 9.0 | 0.00 | 0.00 | 0.00 | 82 | 1010.7 |
| 20260831083721 | 78 | 202 | 6.0 | 9.0 | 0.00 | 0.00 | 0.00 | 82 | 1010.5 |
| 20260831083228 | 78 | 200 | 6.0 | 9.0 | 0.00 | 0.00 | 0.00 | 82 | 1010.4 |
| 20260831083019 | 77 | 199 | 4.0 | 10.0 | 0.00 | 0.00 | 0.00 | 82 | 1007.5 |
| 20260831082759 | 78 | 180 | 6.0 | 10.0 | 0.00 | 0.00 | 0.00 | 82 | 1010.3 |
| 20260831082310 | 78 | 194 | 7.0 | 10.0 | 0.00 | 0.00 | 0.00 | 82 | 1010.2 |
| 20260831081733 | 78 | 166 | 8.0 | 10.0 | 0.00 | 0.00 | 0.00 | 83 | 1010.3 |
| 20260831081543 | 77 | 164 | 7.0 | 10.0 | 0.00 | 0.00 | 0.00 | 83 | 1007.5 |
| 20260831081245 | 78 | 186 | 8.0 | 10.0 | 0.00 | 0.00 | 0.00 | 83 | 1010.3 |
| 20260831080727 | 78 | 178 | 8.0 | 12.0 | 0.00 | 0.00 | 0.00 | 83 | 1010.2 |
| 20260831080239 | 78 | 169 | 7.0 | 13.0 | 0.00 | 0.00 | 0.00 | 83 | 1010.2 |
| 20260831080054 | 77 | 157 | 7.0 | 10.0 | 0.00 | 0.00 | 0.00 | 83 | 1007.3 |
| 20260831075748 | 78 | 193 | 8.0 | 10.0 | 0.00 | 0.00 | 0.00 | 83 | 1010.2 |